Regional Weather Roundup
Issued by NWS

Home | Current Version | Previous Version | Text Only | Print | Product List | Glossary On
Versions: 1 2 3 4 5 6 7 8 9 10 11 12 13 14 15 16 17 18 19 20 21 22 23 24 25 26 27 28 29 30 31 32 33 34 35 36 37 38 39 40 41 42 43 44 45 46 47 48 49 50
000
ASUS43 KLSX 020210
RWRMO

WEATHER SUMMARY FOR MISSOURI
NATIONAL WEATHER SERVICE SPRINGFIELD MO
900 PM CDT TUE SEP 01 2015

NOTE: "FAIR" INDICATES FEW OR NO CLOUDS BELOW 12,000 FEET WITH NO
       SIGNIFICANT WEATHER AND/OR OBSTRUCTIONS TO VISIBILITY.
       CURRENT SKY AND/OR WEATHER CONDITIONS ARE NOT AVAILABLE FOR
       CHILLICOTHE AND FARMINGTON.

MOZ001>031-035>038-043-044-053-054-020300-
...NORTHERN AND WESTERN MISSOURI...

CITY           SKY/WX    TMP DP  RH WIND       PRES   REMARKS
KANSAS CTY INT CLEAR     75  67  76 S9        30.00S
KANSAS C DTWN  CLEAR     82  67  60 S7        30.00R
LEE`S SUMMIT   CLEAR     79  65  62 S6        30.03R
ST JOSEPH      CLEAR     78  67  68 S10       29.97R
CHILLICOTHE      N/A     77  71  82 S3        30.01R
KIRKSVILLE     CLEAR     74  69  85 S6        30.03R

$$
MOZ066>068-077>081-088>096-101>105-020300-
...SOUTHWEST MISSOURI...

CITY           SKY/WX    TMP DP  RH WIND       PRES   REMARKS
SPRINGFIELD    CLEAR     78  68  71 S7        30.07R
JOPLIN         CLEAR     78  65  63 S7        30.05R

$$
MOZ032>034-039>042-045>050-055>058-069>072-020300-
...CENTRAL MISSOURI...

CITY           SKY/WX    TMP DP  RH WIND       PRES   REMARKS
COLUMBIA       CLEAR     75  69  81 SE6       30.05R
JEFFERSON CITY CLEAR     77  71  82 SE5       30.04R
ROLLA          CLEAR     77  70  79 S8        30.08R
SEDALIA        CLEAR     79  69  71 S3        30.05R
WHITEMAN AFB   CLEAR     76  67  73 S6        30.02R
WARRENSBURG    CLEAR     77  66  69 SE6       30.02R
OSAGE BEACH    CLEAR     79  66  65 SE3       30.06S

$$
MOZ051-052-059>065-020300-
...EAST CENTRAL MISSOURI...

CITY           SKY/WX    TMP DP  RH WIND       PRES   REMARKS
ST LOUIS INTL  PTCLDY    85  69  58 S5        30.07R
SPIRIT OF STL  CLEAR     79  73  82 S5        30.05R
ST CHARLES     CLEAR     79  72  79 S3        30.05R

$$
MOZ072>076-082>087-097>100-106>115-020300-
...SOUTH CENTRAL AND SOUTHEAST MISSOURI...

CITY           SKY/WX    TMP DP  RH WIND       PRES   REMARKS
CAPE GIRARDEAU CLEAR     73  70  90 CALM      30.08R
FARMINGTON     CLEAR     75  70  83 S6        30.13R
POPLAR BLUFF   PTCLDY    75  71  87 CALM      30.07R
WEST PLAINS    CLEAR     77  70  79 SE3       30.12R

$$



USA.gov is the U.S. government's official web portal to all federal, state and local government web resources and services.